�N����,����,�~����,�C��,���x,�C��,����,���ϕ���,�ő�u�ԕ���,�ő厞����,���˗�,�I�_���x,�n�����x,�ő啗���N��,DTYPE
"17/04/23","00:10",0.0,6.2,87.6,1008.1,294.6,1.8,2.2,304.5,0.00,4.3,12.7,"00:05:04",1
"17/04/23","00:20",0.0,6.1,88.2,1008.3,285.3,2.0,2.7,273.7,0.00,4.3,12.5,"00:15:36",1
"17/04/23","00:30",0.0,6.2,88.7,1008.6,296.9,2.2,3.4,318.5,0.00,4.5,12.5,"00:29:44",1
"17/04/23","00:40",0.0,6.2,88.4,1008.1,289.8,2.1,3.6,311.0,0.00,4.5,12.6,"00:30:40",1
"17/04/23","00:50",0.0,6.3,88.6,1008.3,287.4,2.2,3.9,317.0,0.00,4.6,12.6,"00:40:40",1
"17/04/23","01:00",0.0,6.2,88.5,1008.3,302.2,2.2,3.5,317.1,0.00,4.5,12.5,"00:55:04",1
"17/04/23","01:10",0.0,6.2,88.5,1007.8,312.4,2.3,3.2,325.8,0.00,4.5,12.3,"01:06:56",1
"17/04/23","01:20",0.0,6.6,88.7,1008.1,317.5,3.0,4.1,320.4,0.00,4.9,12.2,"01:13:36",1
"17/04/23","01:30",0.0,6.8,88.2,1008.1,317.9,3.6,5.4,319.2,0.00,5.0,12.4,"01:29:36",1
"17/04/23","01:40",0.0,7.2,86.9,1007.8,324.0,4.0,5.6,326.5,0.00,5.2,12.3,"01:31:52",1
"17/04/23","01:50",0.0,7.3,86.1,1008.3,325.9,3.1,5.5,315.4,0.00,5.2,12.1,"01:40:02",1
"17/04/23","02:00",0.0,7.3,85.0,1007.8,327.4,3.4,5.7,336.6,0.00,5.0,12.4,"01:50:08",1
"17/04/23","02:10",0.0,7.1,85.8,1008.1,325.9,3.2,4.8,316.7,0.00,4.9,12.1,"02:07:20",1
"17/04/23","02:20",0.0,7.4,86.0,1008.3,326.4,3.2,5.0,338.7,0.00,5.3,12.2,"02:19:04",1
"17/04/23","02:30",0.0,7.7,85.4,1008.1,326.9,3.2,5.6,327.3,0.00,5.4,12.2,"02:26:00",1
"17/04/23","02:40",0.0,7.7,84.8,1008.3,330.1,2.8,4.1,304.6,0.00,5.3,12.1,"02:38:48",1
"17/04/23","02:50",0.0,7.5,84.5,1008.1,330.8,3.0,4.7,311.0,0.00,5.1,12.1,"02:40:24",1
"17/04/23","03:00",0.0,7.1,85.1,1008.1,328.6,2.3,3.4,332.0,0.00,4.8,12.0,"02:59:36",1
"17/04/23","03:10",0.0,6.7,85.8,1008.3,303.4,2.3,3.5,332.8,0.00,4.5,12.2,"03:01:20",1
"17/04/23","03:20",0.0,6.5,87.0,1008.6,306.7,2.1,3.1,314.3,0.00,4.5,11.9,"03:12:08",1
"17/04/23","03:30",0.0,6.2,87.1,1008.8,302.5,1.3,2.8,314.2,0.00,4.3,11.7,"03:21:28",1
"17/04/23","03:40",0.0,5.8,88.5,1008.6,300.2,1.2,2.8,320.3,0.00,4.1,11.8,"03:38:40",1
"17/04/23","03:50",0.0,5.7,89.4,1008.8,311.1,1.8,3.2,320.0,0.00,4.1,11.8,"03:44:08",1
"17/04/23","04:00",0.0,5.4,90.4,1009.0,295.7,1.5,2.5,303.5,0.00,4.0,11.8,"03:50:02",1
"17/04/23","04:10",0.0,5.3,91.3,1009.0,301.5,2.0,2.6,313.3,0.00,4.0,11.6,"04:01:12",1
"17/04/23","04:20",0.0,5.2,91.8,1009.0,299.9,1.7,2.5,313.3,0.00,4.0,11.7,"04:14:08",1
"17/04/23","04:30",0.0,5.0,92.4,1009.0,292.1,1.8,2.4,295.9,0.00,3.9,11.6,"04:29:04",1
"17/04/23","04:40",0.0,4.8,92.7,1009.0,295.4,1.5,1.9,308.6,0.00,3.8,11.7,"04:31:20",1
"17/04/23","04:50",0.0,4.8,93.4,1009.3,295.4,1.7,2.4,318.7,0.00,3.9,11.6,"04:41:52",1
"17/04/23","05:00",0.0,4.8,93.9,1009.0,291.7,1.5,2.7,315.5,0.00,3.9,11.5,"04:53:04",1
"17/04/23","05:10",0.0,4.8,93.7,1009.3,315.6,2.2,3.3,325.0,0.00,3.9,11.5,"05:03:20",1
"17/04/23","05:20",0.0,4.5,93.9,1009.0,280.2,1.1,1.7,314.3,0.00,3.6,11.4,"05:12:48",1
"17/04/23","05:30",0.0,4.5,94.3,1009.3,276.7,0.7,2.4,313.0,0.00,3.7,11.2,"05:29:12",1
"17/04/23","05:40",0.0,4.4,94.9,1009.3,314.5,1.8,2.5,324.8,0.00,3.7,11.5,"05:38:32",1
"17/04/23","05:50",0.0,4.7,95.2,1009.3,315.7,2.1,2.8,321.8,0.00,4.0,11.2,"05:44:56",1
"17/04/23","06:00",0.0,4.8,95.6,1009.5,302.3,2.0,2.6,314.1,0.00,4.2,11.0,"05:57:12",1
"17/04/23","06:10",0.0,5.4,95.9,1009.7,295.9,1.6,2.5,310.5,0.00,4.8,11.3,"06:07:12",1
"17/04/23","06:20",0.0,6.0,95.5,1010.0,276.3,1.0,2.0,313.6,0.01,5.4,11.0,"06:17:12",1
"17/04/23","06:30",0.0,6.7,94.7,1010.4,314.8,1.7,2.7,326.0,0.01,6.0,11.2,"06:26:16",1
"17/04/23","06:40",0.0,7.6,93.5,1010.2,288.4,1.0,2.0,310.8,0.02,6.7,11.4,"06:31:12",1
"17/04/23","06:50",0.0,8.4,85.9,1010.9,298.6,0.5,0.9,293.0,0.04,6.2,11.3,"06:41:44",1
"17/04/23","07:00",0.0,9.0,85.4,1010.9,292.8,0.5,1.0,351.8,0.05,6.7,11.3,"06:53:20",1
"17/04/23","07:10",0.0,9.8,82.7,1011.9,332.6,0.6,1.1,323.7,0.09,7.0,11.2,"07:00:08",1
"17/04/23","07:20",0.0,10.1,78.0,1012.1,309.3,1.1,1.8,323.4,0.12,6.5,11.4,"07:18:08",1
"17/04/23","07:30",0.0,10.9,75.7,1012.1,312.4,0.8,1.9,334.9,0.14,6.8,11.4,"07:20:08",1
"17/04/23","07:40",0.0,11.6,75.2,1012.6,345.0,0.5,1.7,339.8,0.17,7.4,11.6,"07:35:44",1
"17/04/23","07:50",0.0,12.1,73.0,1012.8,14.0,0.6,1.3,318.7,0.20,7.5,11.6,"07:48:08",1
"17/04/23","08:00",0.0,12.6,71.2,1012.8,250.6,0.5,1.1,188.5,0.23,7.6,11.8,"07:51:44",1
"17/04/23","08:10",0.0,13.0,66.0,1012.6,250.9,0.6,1.4,196.5,0.26,6.8,11.8,"08:04:56",1
"17/04/23","08:20",0.0,13.1,64.8,1012.8,171.3,1.2,2.9,215.1,0.29,6.7,11.8,"08:16:40",1
"17/04/23","08:30",0.0,13.5,60.3,1012.8,181.0,1.3,2.9,221.7,0.30,6.0,12.1,"08:22:08",1
"17/04/23","08:40",0.0,13.8,59.5,1012.8,181.5,1.2,2.7,152.7,0.31,6.1,12.1,"08:33:20",1
"17/04/23","08:50",0.0,14.2,58.5,1012.8,33.2,1.3,2.2,348.6,0.36,6.2,12.2,"08:40:40",1
"17/04/23","09:00",0.0,14.2,54.9,1012.8,347.7,2.6,5.9,336.6,0.33,5.3,12.2,"08:54:00",1
"17/04/23","09:10",0.0,14.7,56.2,1012.3,351.4,2.6,5.5,352.9,0.38,6.1,12.4,"09:04:16",1
"17/04/23","09:20",0.0,14.5,54.2,1012.6,345.7,3.6,7.0,330.1,0.35,5.4,12.3,"09:11:28",1
"17/04/23","09:30",0.0,15.0,51.8,1012.6,347.9,3.4,7.1,333.5,0.39,5.2,12.5,"09:26:24",1
"17/04/23","09:40",0.0,15.4,50.7,1012.3,349.7,3.6,6.0,347.1,0.45,5.3,12.7,"09:36:48",1
"17/04/23","09:50",0.0,15.8,49.1,1012.8,357.3,2.8,6.3,345.6,0.51,5.2,12.7,"09:43:12",1
"17/04/23","10:00",0.0,16.0,46.3,1012.3,355.1,3.0,6.2,2.9,0.52,4.5,12.9,"09:59:04",1
"17/04/23","10:10",0.0,16.2,49.0,1012.1,5.3,1.8,4.1,6.3,0.54,5.5,13.2,"10:04:56",1
"17/04/23","10:20",0.0,16.5,46.0,1012.6,3.9,2.3,5.9,326.9,0.55,4.9,13.4,"10:14:08",1
"17/04/23","10:30",0.0,17.0,48.0,1012.3,13.1,2.5,4.7,320.5,0.57,6.0,13.6,"10:22:40",1
"17/04/23","10:40",0.0,17.0,45.9,1012.3,352.8,2.2,5.1,330.5,0.58,5.3,13.6,"10:32:00",1
"17/04/23","10:50",0.0,17.2,41.5,1012.1,2.1,2.1,4.5,349.7,0.59,4.1,14.2,"10:42:48",1
"17/04/23","11:00",0.0,17.4,43.0,1011.9,354.0,1.6,3.5,350.7,0.60,4.7,14.2,"10:53:04",1
"17/04/23","11:10",0.0,17.2,46.1,1011.6,357.3,2.6,5.8,340.2,0.61,5.6,14.5,"11:06:56",1
"17/04/23","11:20",0.0,17.4,46.8,1011.9,322.8,3.0,5.7,349.5,0.62,6.0,14.7,"11:13:04",1
"17/04/23","11:30",0.0,17.8,41.6,1011.6,304.4,3.1,5.7,332.1,0.62,4.6,15.0,"11:22:00",1
"17/04/23","11:40",0.0,18.2,42.3,1011.6,336.9,3.1,7.2,336.9,0.63,5.2,15.2,"11:37:28",1
"17/04/23","11:50",0.0,18.0,41.2,1010.9,334.5,2.8,7.3,342.5,0.63,4.7,15.6,"11:49:44",1
"17/04/23","12:00",0.0,19.1,38.8,1010.9,319.3,2.5,5.5,356.9,0.64,4.8,15.8,"11:58:32",1
"17/04/23","12:10",0.0,18.7,37.8,1010.9,326.8,3.9,7.5,332.8,0.64,4.1,16.1,"12:08:24",1
"17/04/23","12:20",0.0,18.2,39.1,1011.2,328.8,4.9,8.1,332.7,0.64,4.1,16.1,"12:17:28",1
"17/04/23","12:30",0.0,18.6,38.7,1010.7,337.6,4.4,9.8,335.8,0.64,4.3,16.4,"12:29:12",1
"17/04/23","12:40",0.0,19.1,36.8,1010.7,309.8,3.4,7.4,342.8,0.64,4.0,16.6,"12:39:44",1
"17/04/23","12:50",0.0,19.4,38.6,1010.9,343.8,3.4,6.5,344.5,0.63,5.0,16.9,"12:44:24",1
"17/04/23","13:00",0.0,19.3,38.2,1010.7,337.3,3.5,7.8,340.4,0.63,4.8,17.1,"12:51:36",1
"17/04/23","13:10",0.0,19.4,36.5,1010.4,319.8,3.6,7.7,345.3,0.62,4.2,17.2,"13:03:04",1
"17/04/23","13:20",0.0,19.2,37.8,1010.9,339.4,4.4,8.8,341.8,0.62,4.5,17.4,"13:13:36",1
"17/04/23","13:30",0.0,19.2,38.0,1010.4,338.8,3.9,6.0,321.6,0.61,4.6,17.4,"13:20:32",1
"17/04/23","13:40",0.0,19.4,39.6,1010.7,328.9,4.5,7.8,315.8,0.60,5.4,17.5,"13:36:00",1
"17/04/23","13:50",0.0,19.4,36.8,1010.7,336.0,4.2,8.6,333.4,0.59,4.3,17.7,"13:42:00",1
"17/04/23","14:00",0.0,19.6,39.1,1010.4,341.0,4.0,6.8,331.5,0.58,5.4,18.0,"13:53:04",1
"17/04/23","14:10",0.0,19.8,38.5,1010.4,344.6,3.2,6.2,0.9,0.57,5.3,18.1,"14:06:08",1
"17/04/23","14:20",0.0,19.8,35.5,1010.4,330.7,3.7,6.6,331.1,0.55,4.2,18.1,"14:13:12",1
"17/04/23","14:30",0.0,20.1,35.1,1010.2,343.1,3.0,6.6,346.3,0.53,4.3,18.0,"14:22:56",1
"17/04/23","14:40",0.0,20.1,33.0,1010.4,323.6,3.7,7.5,328.9,0.51,3.4,18.0,"14:35:04",1
"17/04/23","14:50",0.0,20.1,34.6,1010.0,337.5,3.6,7.3,344.0,0.50,4.1,17.9,"14:42:56",1
"17/04/23","15:00",0.0,19.9,35.5,1009.7,336.9,4.2,7.0,339.0,0.48,4.2,18.0,"14:56:08",1
"17/04/23","15:10",0.0,20.0,34.8,1010.0,344.7,3.6,7.1,355.1,0.46,4.0,18.2,"15:05:20",1
"17/04/23","15:20",0.0,20.4,35.8,1010.2,339.8,3.4,6.3,346.9,0.43,4.8,18.2,"15:14:40",1
"17/04/23","15:30",0.0,20.5,32.3,1010.0,346.1,3.2,7.3,349.1,0.41,3.4,18.2,"15:20:02",1
"17/04/23","15:40",0.0,20.0,35.2,1010.4,347.9,3.9,6.8,341.1,0.39,4.2,18.2,"15:33:44",1
"17/04/23","15:50",0.0,20.3,34.6,1010.4,344.6,4.1,6.6,339.8,0.36,4.2,18.0,"15:44:24",1
"17/04/23","16:00",0.0,20.0,35.0,1010.4,340.5,4.1,6.6,346.4,0.34,4.1,17.9,"15:57:52",1
"17/04/23","16:10",0.0,19.8,34.1,1010.4,341.9,4.6,9.1,335.8,0.31,3.6,18.0,"16:09:52",1
"17/04/23","16:20",0.0,19.5,34.5,1010.4,340.5,4.7,8.9,340.3,0.29,3.5,18.0,"16:14:32",1
"17/04/23","16:30",0.0,19.2,34.7,1010.9,338.7,5.2,10.9,332.0,0.26,3.3,17.5,"16:20:40",1
"17/04/23","16:40",0.0,19.1,34.7,1010.9,342.5,4.5,8.1,329.5,0.23,3.2,17.6,"16:36:08",1
"17/04/23","16:50",0.0,18.7,35.6,1010.7,337.2,5.2,8.0,341.5,0.20,3.2,17.5,"16:43:52",1
"17/04/23","17:00",0.0,18.5,35.6,1010.7,334.8,4.7,9.3,337.9,0.17,3.0,17.3,"16:54:58",1
"17/04/23","17:10",0.0,18.3,36.1,1010.7,336.5,4.9,8.2,336.9,0.15,3.1,17.2,"17:03:52",1
"17/04/23","17:20",0.0,18.0,37.4,1010.9,340.4,4.5,8.1,339.6,0.12,3.3,17.2,"17:18:56",1
"17/04/23","17:30",0.0,17.7,38.7,1011.2,338.4,4.5,8.9,336.2,0.09,3.5,17.2,"17:27:36",1
"17/04/23","17:40",0.0,17.6,39.8,1011.2,342.0,3.7,8.2,320.4,0.07,3.8,16.8,"17:35:20",1
"17/04/23","17:50",0.0,17.2,42.6,1011.4,343.2,3.6,6.7,329.2,0.05,4.4,16.6,"17:44:48",1
"17/04/23","18:00",0.0,16.7,43.4,1011.6,342.4,3.7,6.3,350.7,0.03,4.2,16.7,"17:57:54",1
"17/04/23","18:10",0.0,16.0,45.6,1011.6,349.4,3.5,5.8,335.5,0.01,4.3,16.5,"18:04:56",1
"17/04/23","18:20",0.0,15.4,47.7,1011.6,345.5,3.7,7.0,333.0,0.00,4.4,16.4,"18:14:16",1
"17/04/23","18:30",0.0,14.9,49.5,1011.9,349.2,4.1,7.9,344.4,0.00,4.5,16.2,"18:23:04",1
"17/04/23","18:40",0.0,14.2,51.1,1011.9,346.6,3.9,7.5,338.6,0.00,4.3,16.2,"18:32:24",1
"17/04/23","18:50",0.0,13.8,52.7,1011.9,348.0,4.0,6.8,330.6,0.00,4.4,15.9,"18:49:14",1
"17/04/23","19:00",0.0,13.5,53.4,1012.3,343.8,4.7,9.5,341.1,0.00,4.3,15.9,"18:58:16",1
"17/04/23","19:10",0.0,13.2,53.8,1012.8,347.5,4.5,7.2,347.0,0.00,4.1,15.8,"19:01:56",1
"17/04/23","19:20",0.0,12.7,53.9,1013.0,340.1,3.7,6.8,307.9,0.00,3.7,15.6,"19:14:20",1
"17/04/23","19:30",0.0,12.3,55.6,1012.8,337.2,3.1,5.1,348.3,0.00,3.7,15.5,"19:29:44",1
"17/04/23","19:40",0.0,12.0,56.8,1012.8,333.9,3.2,6.4,320.0,0.00,3.7,15.3,"19:34:20",1
"17/04/23","19:50",0.0,11.8,57.8,1013.5,334.6,3.6,7.1,331.9,0.00,3.8,15.3,"19:45:50",1
"17/04/23","20:00",0.0,11.7,58.7,1013.5,328.8,3.4,6.5,330.1,0.00,3.9,15.2,"19:51:28",1
"17/04/23","20:10",0.0,11.6,60.0,1014.2,333.3,3.5,6.5,345.0,0.00,4.1,15.2,"20:05:54",1
"17/04/23","20:20",0.0,11.4,61.3,1013.8,334.4,3.2,6.3,337.1,0.00,4.3,15.1,"20:18:32",1
"17/04/23","20:30",0.0,11.2,62.5,1014.2,329.3,3.0,6.4,321.0,0.00,4.4,14.7,"20:23:52",1
"17/04/23","20:40",0.0,11.2,62.4,1014.7,324.6,3.1,4.4,333.9,0.00,4.3,14.8,"20:31:52",1
"17/04/23","20:50",0.0,11.0,63.6,1014.7,327.9,2.8,4.7,342.4,0.00,4.4,14.6,"20:42:36",1
"17/04/23","21:00",0.0,10.9,63.8,1015.2,328.1,3.5,5.2,322.8,0.00,4.4,14.5,"20:51:28",1
"17/04/23","21:10",0.0,10.7,65.1,1014.9,328.0,3.0,4.4,316.4,0.00,4.5,14.5,"21:04:24",1
"17/04/23","21:20",0.0,10.4,66.2,1014.9,329.3,3.0,4.5,336.1,0.00,4.4,14.4,"21:17:50",1
"17/04/23","21:30",0.0,10.2,67.4,1014.9,331.4,3.0,4.0,334.8,0.00,4.5,14.3,"21:21:56",1
"17/04/23","21:40",0.0,9.9,68.6,1015.2,335.6,2.8,4.5,324.5,0.00,4.4,14.0,"21:31:46",1
"17/04/23","21:50",0.0,9.7,69.8,1015.4,332.6,2.7,4.3,338.4,0.00,4.5,14.3,"21:43:36",1
"17/04/23","22:00",0.0,9.6,70.5,1015.2,334.5,2.8,4.3,339.5,0.00,4.5,14.2,"21:55:24",1
"17/04/23","22:10",0.0,9.6,71.2,1015.6,332.1,3.4,5.5,335.1,0.00,4.7,13.9,"22:09:04",1
"17/04/23","22:20",0.0,9.8,70.5,1015.6,327.8,4.5,5.7,332.3,0.00,4.7,13.8,"22:10:24",1
"17/04/23","22:30",0.0,9.6,71.3,1015.4,332.5,3.7,5.5,329.7,0.00,4.7,14.0,"22:20:48",1
"17/04/23","22:40",0.0,9.4,72.4,1015.6,331.9,3.4,4.3,321.4,0.00,4.7,13.8,"22:31:04",1
"17/04/23","22:50",0.0,9.2,73.1,1016.1,330.7,3.4,4.4,332.4,0.00,4.7,13.8,"22:40:16",1
"17/04/23","23:00",0.0,9.0,73.4,1015.9,335.8,2.8,4.9,321.7,0.00,4.5,13.9,"22:50:24",1
"17/04/23","23:10",0.0,8.6,74.8,1015.6,334.3,2.6,3.6,326.7,0.00,4.4,13.5,"23:01:44",1
"17/04/23","23:20",0.0,8.4,76.0,1016.1,332.1,2.3,4.1,337.6,0.00,4.5,13.4,"23:10:16",1
"17/04/23","23:30",0.0,8.2,76.9,1016.1,332.5,2.5,3.6,340.5,0.00,4.4,13.5,"23:20:24",1
"17/04/23","23:40",0.0,8.1,77.8,1015.9,338.4,2.6,4.7,334.7,0.00,4.5,13.2,"23:38:56",1
"17/04/23","23:50",0.0,8.1,78.2,1015.9,332.4,3.0,4.8,342.8,0.00,4.6,13.3,"23:41:12",1
"17/04/23","24:00",0.0,7.9,78.8,1016.1,326.5,2.7,3.9,339.4,0.00,4.5,13.2,"23:58:08",1
